Location: Asbacherhof
(48.8543°N, 10.7903°E)
Time: 21:28:13
(UTC+00:00)

Cosmos 2084 Rocket - Pass Details

Date: 26 May 2022
Orbit: 497 x 678 km, 62.8° (Epoch: 29 June)

Event Time Altitude Azimuth Distance (km) Brightness Sun altitude
Exits shadow 01:49:31 16° 245° (WSW) 1,394 4.8 -11.9°
Maximum altitude 01:52:24 50° 318° (NW) 642 3.7 -11.6°
Drops below altitude 10° 01:56:07 10° 35° (NE) 1,709 7.4 -11.3°
Sets 01:58:20 0° 41° (NE) 2,603 9.0 -11.0°
